STARLINK-11203, 60117

Orbit data source: Space-Track

STARLINK-11203, 60117 is a payload satellite owned by SpaceX/Seattle (US) in LEO that was launched on Mon, 24 Jun 2024 UTC via an FALCON 9 launch vehicle from the Air Force Western Test Range (AFWTR). Payload-class satellites include a variety of spacecraft equipped with specific instruments for various scientific and technological missions. These include communications satellites like Starlink; space stations such as the ISS; scientific satellites like the Hubble; Earth observation satellites from companies like Planet Labs, Umbra, and HawkEye 360; GPS; miniature CubeSats for education and research; and military/defense satellites.

Loading next visibility...
Identifier
60117, 2024-118E
Orbit
LEO
Country
Flag of USUS
Related business
Manufacturer
SpaceX/Seattle
Mission
Operational Commercial Communications
Bus & Motor
STARLINK V2MD, Unknown motor
Mass
960 kg wet, ~910 kg dry
Launch date (UTC)
2024-06-24 (1 year ago)
Launch vehicle
FALCON 9
Launch site
Air Force Western Test Range (AFWTR)
Object type
Payload
Rocket body
Debris
Shape & HBR
Box + 2 Pan, 18.1 m
Radar Cross Section
36.964 m², Large (>1 m²)

Expand to show TLE details & history
Last TLE update: 23 hours ago

TLE from 23 hours ago
0 STARLINK-11203
1 60117U 24118E   25303.55931306  .00000666  00000-0  10356-4 0  9993
2 60117  53.1589 142.8500 0001138  83.5056 276.6091 15.69715952 77553
Epoch: 2025-10-30T13:25Z
TLE epoch observation values (Epoch: 2025-10-30T13:25:24.648Z)
Latitude
-0.00005°
Longitude
-97.6191°
Altitude
360.537 km
Speed
7.694 km/s
True Right ascension
09h 31m 23s
True Declination
0° 00' 00"
Sunlit
Object was in daylight at epoch
Visualization orbit readout
Latitude
Unknown
Longitude
Unknown
Altitude
Unknown
Speed
Unknown
Apparent Right ascension
Unknown
Apparent Declination
Unknown
Sunlit
N/A
Visualization observer readout
Local Sidereal Time
08:08:05
Azimuth
Unknown
Elevation
Unknown
Doppler factor
Unknown
Orbital elements
Apogee altitude
360.737 km
Perigee altitude
359.204 km
Semi-major axis
6,738.108 km
Eccentricity
0.00011
Inclination
53.1589°
RAAN
142.85°
Arg. of periapsis
83.5056°
True anomaly
276.59615°
Mean anomaly
276.6091°
Eccentric anomaly
276.60262°
Mean motion
3.92407 °/min
Orbital period
91.74 mins
BSTAR
0.000010356
Loading maneuver chart data...
Computing Atmospheric mass density...
Loading historical data...
Loading historical data...
Loading historical data...
Loading historical data...
Loading historical data...
Loading historical data...
Loading historical data...

Documentation

Showing up to 5 results
|